Temp
23 23 23 24 24 24 23 23 23 24 24 24 24 24 24 23 24 25 25 25 25 25 26 26 26 26 27 27 26 25 25 24 25 25 25 25 25 25 25 25 25 25 24 24 22 21 21 21 20 19 19 18 18 18 18 18 18 19 19 19 18 18 17 18 18 19 19 19 19 19 19 19 18 18 18 17 17 17 16 16 16 16 16 16 16 16
22 23 23 24 24 23 22 22 22 23 23 23 24 23 23 23 24 25 25 24 25 24 25 26 25 26 27 26 26 25 24 24 25 25 25 25 25 25 25 25 25 25 24 23 22 22 22 21 19 19 19 18 18 18 18 18 19 19 19 19 18 18 18 18 19 19 19 19 19 19 19 19 19 18 18 18 17 16 16 15 16 16 16 16 15 16
22 23 24 23 22 22 21 22 22 23 23 23 24 23 23 24 24 24 24 24 24 24 25 26 25 26 27 26 26 25 25 25 25 25 25 25 25 26 26 25 25 25 24 23 22 22 22 21 20 19 19 18 19 18 18 18 19 19 19 19 18 18 18 18 18 19 19 18 18 19 19 19 18 18 17 17 16 16 16 15 15 15 15 15 16 16
22 23 24 22 22 22 21 21 22 23 23 23 24 23 22 24 24 22 23 24 24 23 24 25 24 25 27 26 26 26 25 25 24 24 24 25 25 25 26 25 25 25 24 23 22 22 22 21 20 20 19 19 19 19 18 18 18 19 19 19 18 18 18 18 18 18 18 18 17 17 17 17 18 17 16 16 16 16 16 15 15 15 15 15 16 16
23 23 22 22 21 22 22 22 22 23 23 23 24 23 23 24 23 23 23 24 24 23 23 24 23 24 26 26 26 26 25 24 24 24 24 24 24 24 24 25 25 24 24 24 23 22 22 22 21 20 20 19 19 19 19 18 18 19 19 19 18 18 18 18 18 17 17 17 17 17 17 17 17 17 17 17 17 16 16 16 15 15 15 15 15 16
23 21 21 22 22 22 23 22 23 23 23 23 23 24 24 24 24 24 24 23 22 22 23 23 21 22 24 25 26 26 25 25 25 25 25 25 24 24 24 24 24 24 24 24 24 23 23 22 21 21 20 19 19 19 19 18 18 19 19 19 18 18 18 18 17 17 17 17 17 17 18 18 18 18 18 18 17 17 17 16 15 15 15 15 15 15
23 20 20 22 22 22 23 23 24 24 22 22 23 24 24 24 24 23 23 22 21 21 22 23 21 21 23 24 25 26 25 26 25 25 25 25 25 25 25 25 25 24 24 24 24 24 23 23 22 21 20 20 20 19 19 18 18 19 19 18 18 18 18 18 17 17 17 18 18 18 18 19 19 19 18 18 17 17 17 16 15 15 15 15 15 15
22 21 21 22 22 23 23 23 24 24 23 22 22 24 24 24 23 23 23 22 22 22 22 23 23 21 21 23 25 25 25 26 25 25 25 25 25 25 25 25 25 25 24 24 23 24 24 23 23 22 20 20 20 19 18 18 18 19 19 18 18 19 18 18 17 17 17 18 18 18 19 19 19 19 18 17 17 17 16 16 15 15 15 15 15 15
22 22 22 22 22 23 24 24 24 23 23 22 21 23 24 24 23 23 23 22 22 22 21 22 23 21 21 23 25 25 24 25 25 25 25 25 25 25 25 25 24 24 24 23 23 23 23 23 23 22 21 20 20 19 18 18 18 18 18 18 18 18 18 18 17 17 17 18 18 18 19 19 19 19 18 18 17 16 16 16 16 16 15 15 15 15
22 22 22 23 23 23 24 23 23 23 23 22 22 23 24 24 23 23 23 22 22 21 20 21 22 21 21 22 23 24 23 24 25 25 25 25 25 25 24 24 24 24 23 23 23 23 23 23 22 22 21 20 20 19 18 18 18 18 18 18 18 18 18 18 17 17 17 18 18 18 19 19 19 18 18 18 17 17 16 16 16 16 16 15 15 15
22 21 21 22 23 23 23 22 21 22 22 22 22 23 23 23 23 23 23 22 21 20 21 21 21 21 20 21 23 23 23 23 24 24 25 25 25 24 24 23 23 23 23 23 23 23 23 22 22 21 21 20 19 18 18 18 18 18 18 18 18 18 18 18 17 17 17 17 18 18 18 18 18 18 18 18 17 17 17 16 16 16 16 16 15 15
23 21 21 23 22 23 23 22 21 21 22 22 23 23 22 22 22 22 22 21 20 20 21 21 22 21 20 21 23 23 23 23 23 24 24 24 24 23 23 23 23 23 22 23 22 22 22 22 22 21 20 20 19 18 18 18 18 18 18 18 18 18 18 18 17 17 17 17 18 18 18 18 18 18 18 18 17 17 17 17 17 17 16 16 15 15
23 24 23 23 22 22 23 23 22 22 22 22 23 22 21 20 21 20 20 21 20 20 21 21 21 20 20 22 24 23 23 23 22 22 23 22 22 22 22 22 22 22 22 22 22 21 21 21 21 21 20 20 19 18 18 18 17 18 18 18 18 18 18 18 17 17 17 17 18 18 18 18 18 18 18 18 18 17 17 17 17 17 17 16 16 15
22 24 23 22 22 22 23 23 22 22 22 22 22 21 20 20 20 20 20 20 20 20 21 21 21 20 21 22 23 23 22 22 21 21 21 21 21 21 21 22 22 22 22 22 22 21 20 20 20 20 20 20 19 18 18 18 17 18 18 18 18 18 18 18 17 17 17 17 17 18 18 18 18 18 18 18 18 18 18 18 17 17 17 17 16 16
21 21 22 22 22 22 23 23 23 23 23 23 23 23 21 20 20 20 20 20 20 20 20 20 20 20 21 21 22 22 21 21 21 21 21 21 21 21 22 22 22 22 22 21 21 20 20 20 20 20 20 19 19 18 18 18 17 17 18 18 18 18 18 18 17 17 17 17 17 17 18 18 18 18 18 18 18 18 18 18 17 17 17 17 17 16
20 21 22 22 21 22 23 23 23 23 23 23 24 23 21 21 21 20 20 19 19 20 20 20 20 21 21 21 21 21 21 21 21 21 21 21 21 21 21 21 21 21 21 20 20 19 19 20 20 19 19 19 18 18 18 18 18 17 18 18 18 18 18 17 17 17 17 17 17 17 17 17 17 18 18 18 18 18 18 18 17 17 17 17 17 16
20 21 22 22 21 22 22 22 23 22 22 22 22 21 22 23 22 20 19 19 18 19 20 20 20 22 22 21 22 22 21 21 21 21 21 21 21 21 21 21 21 21 20 20 19 19 19 19 19 19 19 19 18 18 18 18 18 17 18 18 18 18 18 17 17 17 17 17 17 17 17 17 17 17 18 18 18 17 17 17 17 17 17 17 17 16
20 21 22 22 22 21 21 22 23 22 22 22 21 22 23 23 22 21 20 19 19 19 20 20 20 21 21 21 21 22 21 21 21 21 21 21 21 21 20 20 20 20 20 19 19 19 19 19 19 19 19 18 18 18 18 18 18 17 17 18 18 18 17 17 17 17 17 17 17 17 17 17 17 17 17 17 17 17 17 17 17 17 17 17 16 16
20 20 22 22 22 22 22 22 22 22 22 22 22 23 22 21 21 21 20 19 19 19 20 20 20 20 20 21 21 21 21 21 21 21 21 21 21 20 20 20 19 19 19 19 19 18 18 18 18 17 18 18 18 18 18 17 17 17 17 17 17 18 17 17 17 17 17 17 16 17 17 16 16 17 17 17 17 17 17 17 17 17 17 16 16 16
20 20 20 22 22 22 22 22 21 21 22 22 22 23 22 21 20 21 20 20 19 19 19 20 20 20 21 22 22 22 22 21 21 21 21 20 20 19 19 19 19 18 18 18 18 18 18 18 17 17 17 17 16 16 17 17 16 16 16 16 17 17 17 17 17 17 17 16 16 16 16 16 16 16 17 17 17 17 17 17 17 17 17 16 16 16
20 19 19 21 22 21 21 21 21 21 22 21 21 21 21 21 21 21 20 21 20 19 19 19 19 20 21 22 23 23 22 21 21 21 20 20 19 19 18 18 18 18 17 17 18 18 18 18 18 17 17 16 16 16 15 15 15 15 15 16 16 17 17 17 17 17 17 16 16 16 16 16 16 16 16 17 16 17 17 17 17 17 16 16 16 16
20 19 19 20 21 21 21 21 20 20 21 21 21 21 21 21 20 20 19 20 20 20 20 19 19 20 20 20 21 23 21 21 21 21 20 20 19 18 18 17 17 17 17 17 17 17 18 18 18 17 17 17 16 16 16 16 15 15 15 16 16 16 16 16 16 16 16 16 16 16 16 16 16 16 16 16 16 16 17 17 17 16 16 16 16 16
18 19 19 19 20 21 21 20 19 19 20 20 20 21 21 21 20 19 19 20 20 20 20 20 19 20 19 19 20 22 21 21 21 20 20 19 19 18 18 17 17 17 17 17 17 17 18 18 18 18 17 17 16 16 16 16 16 16 16 16 16 16 16 15 15 15 16 16 16 16 16 16 16 16 16 16 16 16 16 16 16 16 16 16 16 16
17 18 19 19 20 21 21 20 19 19 19 20 20 20 20 20 20 20 19 20 19 19 19 19 18 19 19 18 19 20 20 20 20 20 20 19 18 18 18 17 17 17 17 17 17 17 18 18 18 18 18 17 17 16 16 16 16 15 15 16 16 15 15 16 16 15 15 16 16 16 16 16 16 16 16 16 16 16 16 16 16 16 16 16 16 16
18 18 18 18 18 19 19 19 19 19 19 19 20 20 19 20 20 19 19 19 18 19 19 18 18 20 19 18 19 19 19 20 19 19 19 18 18 18 18 17 17 17 17 17 17 17 17 18 18 18 18 17 17 17 16 16 16 15 15 15 15 15 15 15 15 15 16 16 16 16 16 15 15 15 15 15 15 15 16 16 16 16 15 15 15 15
18 18 18 17 17 17 17 18 18 18 19 19 19 19 18 19 19 18 19 19 18 19 19 18 18 20 19 18 19 19 19 19 19 19 19 19 18 18 18 17 17 17 17 17 17 16 16 17 17 17 17 17 17 17 16 16 16 16 15 15 15 15 15 15 15 15 15 16 16 16 15 15 15 15 15 15 15 15 15 15 16 16 15 15 15 15
17 18 18 17 17 17 18 19 19 18 18 19 18 18 18 18 18 18 18 18 18 19 19 19 19 20 19 18 19 19 19 19 19 19 19 19 18 18 17 17 17 17 17 17 17 16 16 16 16 16 16 16 16 16 16 16 16 16 15 15 15 15 14 14 14 15 15 15 15 15 15 15 15 15 15 15 15 15 15 16 16 16 16 15 15 15
17 17 17 17 17 18 18 19 18 17 17 18 18 18 18 18 17 17 17 18 19 18 18 19 20 19 19 19 19 19 19 19 19 19 19 19 18 17 17 17 17 17 17 17 16 16 16 15 15 16 15 15 16 15 15 16 15 15 15 15 15 14 14 14 14 15 15 15 15 15 15 15 15 15 15 15 15 15 15 15 15 15 15 15 15 15
16 16 17 17 16 17 18 18 17 17 17 17 17 17 17 17 17 16 16 17 18 17 17 19 19 18 19 20 20 20 19 19 19 19 19 19 18 17 17 17 17 17 17 16 16 15 15 15 15 15 15 15 15 15 15 15 15 15 14 14 14 14 14 14 14 14 15 15 15 15 15 15 15 15 15 15 15 15 15 15 15 15 15 14 14 14
16 16 16 16 16 16 17 17 17 17 16 16 17 17 17 17 17 17 16 17 17 17 17 17 17 17 18 20 20 19 19 19 19 19 18 18 17 17 17 17 17 16 16 16 15 15 15 15 15 15 15 14 14 14 14 14 14 14 14 14 14 14 14 14 14 14 14 15 15 15 15 15 15 15 15 15 15 15 15 15 15 14 14 14 14 14
15 15 15 15 15 15 16 17 17 16 16 16 16 16 17 16 16 16 16 16 16 16 16 16 15 15 17 19 20 19 18 18 18 18 17 17 17 17 17 17 16 16 16 15 15 15 15 15 15 15 15 14 14 14 14 14 14 14 14 13 13 13 13 13 13 13 14 14 14 15 15 15 15 15 15 15 15 15 15 15 15 14 14 14 14 14
14 15 15 14 14 14 16 16 16 16 16 15 15 15 15 15 15 15 16 16 15 15 15 15 14 15 17 19 19 19 18 18 18 17 17 17 17 17 17 16 16 16 15 15 15 15 15 15 15 15 14 14 14 14 14 14 14 14 13 13 13 13 13 13 13 13 13 14 14 14 15 15 15 15 15 15 15 15 15 15 15 14 14 14 14 14
15 14 15 14 13 14 15 15 15 14 13 13 14 15 15 15 15 15 15 16 16 15 14 14 15 16 17 17 17 18 18 18 17 18 17 16 16 17 16 16 16 15 15 15 15 15 14 15 15 14 14 14 14 14 14 13 13 13 13 13 13 13 13 13 13 13 13 14 14 14 14 14 15 15 15 15 15 15 15 15 15 15 14 14 14 14
14 14 14 14 14 13 14 14 13 12 12 13 14 15 14 15 15 15 15 15 16 15 15 15 16 16 16 16 16 17 17 16 16 17 17 16 16 16 16 16 15 15 15 15 14 14 14 14 14 14 13 13 13 13 13 13 13 13 13 13 13 13 13 13 13 13 13 13 14 14 14 14 14 14 14 14 14 14 14 14 14 14 14 14 14 14
13 13 13 14 13 13 14 13 11 11 12 13 14 14 14 14 14 14 14 14 14 14 14 14 15 15 15 15 15 15 15 15 15 16 16 16 16 16 15 15 15 15 14 14 14 14 14 14 13 13 13 13 13 12 13 13 13 13 13 13 13 13 13 13 13 13 13 13 13 13 13 13 14 14 14 14 14 14 14 14 14 14 14 14 14 14
13 12 13 13 13 13 13 11 11 12 13 14 14 14 13 13 13 13 13 13 13 13 13 13 14 14 14 14 14 14 15 15 15 15 15 15 15 15 15 15 14 14 14 14 14 14 14 13 13 13 13 12 13 13 13 13 13 12 12 12 12 13 13 13 13 13 13 13 13 13 13 13 13 13 13 13 13 13 13 13 13 13 14 14 14 14
13 13 13 13 12 12 12 12 12 13 13 13 13 13 12 12 12 12 12 12 12 12 13 13 13 13 13 13 14 14 14 15 15 14 15 15 14 14 15 14 14 14 14 14 14 13 13 13 13 13 12 12 12 13 13 13 12 12 12 12 12 12 13 13 13 13 13 13 13 13 13 13 13 13 13 13 13 13 13 13 13 13 13 13 14 14
13 13 13 12 12 12 12 12 12 12 12 12 12 12 11 11 12 11 11 12 12 12 13 13 13 13 13 13 13 13 14 14 14 14 14 14 14 14 14 14 14 14 14 14 13 13 13 13 13 12 12 12 12 12 12 12 12 12 12 12 12 12 13 13 13 13 13 13 13 13 12 12 12 12 13 13 13 13 13 13 13 13 13 13 13 13
12 13 13 12 12 12 11 10 11 11 12 12 11 11 11 11 11 11 11 11 11 12 12 12 12 12 12 12 13 13 13 13 14 14 13 13 14 13 13 14 14 14 14 14 13 13 13 12 12 12 12 12 12 12 12 12 12 12 12 12 12 12 12 12 13 13 13 13 12 12 12 12 12 12 12 12 12 12 12 12 12 12 13 13 13 13
12 12 12 11 11 11 11 10 11 12 12 11 11 11 11 11 10 10 10 10 10 11 12 12 12 12 12 12 12 13 12 13 14 14 13 13 14 13 13 13 13 13 13 13 13 13 12 12 12 12 12 12 12 12 12 12 12 11 11 11 11 12 12 12 12 12 12 12 12 12 12 12 12 12 12 12 12 12 12 12 12 12 12 12 12 12
11 11 11 11 11 11 11 10 11 12 11 11 11 11 11 10 10 9 9 9 9 10 11 11 11 12 12 12 12 12 13 13 13 13 12 13 13 13 13 13 13 13 13 13 12 12 12 12 12 12 12 12 12 12 12 11 11 11 11 11 11 11 12 12 12 12 12 12 12 12 12 12 12 12 11 11 11 12 12 12 12 11 11 10 10 10
10 10 10 10 10 11 11 10 10 11 10 10 11 11 10 10 9 9 9 9 10 10 10 10 11 11 11 11 11 12 12 12 12 12 12 12 12 13 13 13 13 13 12 12 12 11 12 12 12 12 12 12 12 12 12 11 11 11 11 11 11 11 11 11 11 11 11 11 12 12 12 12 11 11 11 11 11 11 11 11 11 10 9 9 8 8
10 9 9 10 10 10 10 10 9 9 9 10 10 10 10 9 9 9 10 10 10 10 10 10 10 10 11 11 11 11 11 12 12 12 12 12 12 12 13 13 13 13 13 12 12 12 12 11 12 12 12 12 12 11 11 11 11 11 11 11 11 11 11 11 11 11 11 11 11 11 11 11 11 10 10 10 10 10 10 10 10 9 8 7 7 6
9 9 9 10 10 9 9 9 9 9 9 10 10 9 9 9 10 10 10 10 10 10 10 10 10 10 10 10 10 10 11 11 11 11 12 12 12 12 12 13 13 13 13 12 12 12 12 11 12 12 12 11 11 11 11 11 11 11 11 11 11 10 10 10 10 10 11 11 11 11 11 10 10 10 10 10 10 10 10 9 8 7 6 6 6 6
9 9 8 9 9 9 9 9 10 10 10 11 10 9 10 10 10 10 10 10 10 10 10 10 10 10 10 10 10 10 10 10 11 11 11 11 11 12 12 12 12 12 12 12 12 12 12 12 12 12 11 11 11 11 11 11 11 11 11 11 10 10 10 10 10 10 10 10 10 10 10 10 10 10 10 10 10 9 8 7 6 6 6 5 6 5
10 9 8 8 9 9 9 10 10 10 10 10 10 10 10 10 10 10 10 10 10 10 10 10 10 10 10 10 10 10 10 10 10 10 11 11 11 11 12 12 12 12 12 12 12 12 11 11 11 11 11 11 11 11 11 11 10 10 11 11 10 10 10 10 9 9 9 9 9 10 10 10 10 10 9 9 8 7 6 5 5 5 5 5 5 5
10 9 8 8 8 8 8 9 9 9 9 10 10 10 10 10 10 10 10 10 10 10 10 10 10 10 10 10 10 10 10 10 10 10 11 11 11 11 12 12 12 12 12 12 12 11 11 11 11 11 11 11 11 10 10 10 10 10 10 10 9 9 9 9 9 9 9 9 9 9 9 9 9 8 8 7 6 5 5 5 5 5 5 5 5 5
8 7 7 8 8 7 7 8 9 9 9 10 10 10 10 10 10 10 10 9 9 9 9 10 10 10 10 10 10 10 10 10 10 10 11 11 11 11 12 12 12 11 11 11 11 11 11 11 11 11 11 10 10 10 10 10 10 10 9 9 8 8 8 8 8 8 8 8 8 8 8 8 7 6 5 5 4 4 4 5 5 5 5 6 6 6
8 7 7 7 7 7 8 9 9 9 9 9 10 10 10 9 9 9 9 9 9 9 9 10 10 10 10 10 10 10 10 10 10 10 10 10 11 11 12 12 11 11 11 11 10 10 10 10 10 10 10 10 10 10 10 10 9 9 8 8 8 7 7 7 7 7 7 7 6 6 5 5 5 4 4 4 4 4 5 5 6 6 6 6 6 6
7 7 7 7 6 7 7 8 8 7 7 8 9 9 9 9 8 8 8 8 8 8 8 9 9 10 10 10 10 10 9 9 10 10 10 10 11 11 11 11 11 10 10 10 10 10 10 10 10 10 9 10 10 9 9 9 9 8 7 7 7 6 6 6 6 5 5 5 4 4 4 4 4 4 4 4 4 5 5 6 6 6 6 6 6 7
7 6 6 6 5 6 7 7 7 7 6 7 8 8 8 8 8 7 8 8 8 8 8 8 8 8 9 10 10 10 9 9 10 10 10 10 10 11 10 10 10 10 10 10 10 9 9 9 9 9 9 9 9 9 9 8 7 6 6 6 6 5 5 4 4 4 4 4 3 4 4 4 4 4 5 5 5 5 6 6 6 6 6 6 6 6
Height
770 774 772 769 767 767 771 771 770 769 769 770 769 768 765 763 762 760 763 763 763 765 761 761 764 761 759 758 759 760 761 763 762 761 763 763 762 762 763 764 765 768 770 773 777 780 782 784 786 789 790 792 793 795 796 798 800 801 803 804 805 807 808 810 811 812 813 813 814 815 816 817 818 819 820 820 821 822 822 823 823 823 823 823 823 823
774 776 770 767 768 771 773 774 774 773 773 772 770 768 766 765 761 760 765 765 764 767 762 762 765 761 758 758 759 760 762 763 761 762 763 762 762 762 762 764 765 767 769 772 776 778 780 783 785 787 789 790 792 793 795 797 798 800 802 803 804 806 808 809 810 811 812 813 814 815 815 816 817 818 819 820 821 822 823 823 823 823 823 823 823 823
776 772 767 768 771 774 776 776 775 774 774 772 769 769 768 763 761 764 767 765 766 768 763 762 765 760 756 756 757 759 760 760 759 760 761 761 761 761 762 763 764 766 768 771 774 776 778 781 783 785 787 789 790 792 794 795 797 799 801 802 804 805 807 809 810 811 812 813 814 815 815 816 818 819 820 821 822 823 823 823 824 824 824 823 823 823
773 767 766 770 772 774 777 777 776 774 772 771 767 769 768 764 766 770 771 768 767 769 766 765 767 760 755 756 756 757 757 758 759 760 761 761 761 761 761 761 762 765 767 769 772 774 776 778 780 782 784 786 789 790 792 794 795 797 799 801 802 804 806 808 810 811 812 813 814 815 816 817 818 819 820 821 822 823 823 824 824 824 824 824 824 824
768 768 768 772 774 773 775 777 776 772 769 769 768 767 766 765 768 768 769 770 768 771 769 767 770 761 753 756 755 754 758 759 760 761 761 761 761 762 761 761 762 763 764 767 769 770 772 774 776 778 781 784 786 788 790 791 793 795 797 799 801 803 805 807 808 810 811 812 814 815 816 817 818 819 820 821 822 823 823 824 824 824 824 824 824 824
767 773 773 773 774 772 773 774 770 769 768 768 768 765 764 765 767 767 768 771 772 775 771 770 779 769 754 756 755 753 757 758 758 759 760 760 760 761 761 761 761 762 762 763 764 766 768 770 773 775 778 781 783 785 787 789 791 793 796 798 800 802 804 806 807 809 810 812 813 814 815 816 817 818 819 820 821 822 823 824 824 824 825 825 825 825
768 774 774 773 773 772 773 770 766 767 768 768 765 760 762 763 767 769 770 773 775 775 771 770 780 775 760 756 755 754 757 755 757 759 758 758 758 758 758 758 759 760 761 762 762 763 764 767 769 772 774 777 779 782 785 787 790 792 794 796 798 801 803 805 806 808 810 811 812 813 814 815 816 817 818 820 821 822 823 824 824 825 825 825 825 825
769 773 775 774 772 772 770 766 765 765 767 769 765 760 761 763 768 770 769 772 770 768 771 767 770 777 769 758 754 755 757 755 756 760 759 757 757 757 757 757 757 758 759 760 761 761 762 764 766 768 771 774 777 780 783 785 788 791 793 795 797 799 801 803 805 807 808 810 811 812 813 814 815 816 818 820 821 822 823 824 825 825 826 826 826 826
769 772 773 772 772 770 762 759 762 764 766 769 767 762 761 763 767 768 767 769 768 774 779 767 767 781 774 758 755 757 758 757 757 759 759 757 757 758 758 758 757 758 758 759 759 760 760 761 763 766 769 772 775 778 780 782 785 789 791 793 795 798 800 802 804 806 807 809 810 811 812 813 815 816 818 819 821 822 823 824 825 825 826 826 826 827
768 768 768 768 770 765 760 761 763 764 767 768 766 763 762 764 766 768 769 767 771 784 783 767 769 782 775 759 757 759 759 758 757 758 757 757 757 758 759 760 759 758 758 758 758 758 759 760 761 764 766 769 772 775 778 781 784 787 789 792 794 796 799 800 802 805 806 808 809 810 811 812 814 816 817 819 820 821 823 823 824 825 826 826 827 827
765 768 769 767 766 762 762 767 768 767 767 766 766 764 765 766 764 767 766 765 778 787 778 767 769 780 780 763 753 758 761 760 760 759 757 757 757 758 760 760 759 758 758 757 757 757 757 758 760 762 765 767 770 773 776 779 782 784 787 790 792 794 797 799 800 803 805 807 808 809 810 812 813 815 816 818 819 820 822 823 824 825 825 826 827 827
763 767 767 763 763 762 764 768 769 768 766 766 765 765 770 772 770 773 770 774 789 787 774 769 768 778 785 768 753 758 761 760 762 761 760 760 760 760 761 760 759 759 758 757 756 756 756 757 758 760 763 765 769 771 774 777 780 783 785 788 791 793 795 797 799 801 804 805 807 808 809 811 812 814 815 817 818 819 821 822 823 824 825 826 827 827
761 759 759 761 762 762 764 766 768 769 767 767 765 768 778 781 782 786 781 779 784 778 771 770 773 781 778 761 754 760 760 761 763 762 763 764 763 763 763 761 760 759 758 756 756 756 756 757 758 760 762 764 767 770 773 776 778 781 784 787 789 791 793 795 797 799 802 804 805 807 808 810 811 813 814 816 817 818 820 821 822 823 824 825 826 827
763 757 758 763 763 761 762 763 767 768 766 767 766 771 781 783 789 794 785 777 776 774 771 770 778 783 770 757 757 760 762 763 764 764 765 766 766 766 763 761 760 758 758 756 755 756 757 757 759 760 762 763 765 769 772 775 777 780 782 785 787 789 791 794 796 798 800 802 804 806 807 809 810 812 813 814 816 817 818 820 821 822 823 824 825 826
773 769 763 763 764 763 762 759 760 760 760 762 758 763 773 776 785 790 782 778 775 774 776 779 783 779 769 765 762 760 763 764 764 765 766 766 766 765 763 761 761 759 758 758 757 758 758 758 760 761 762 764 766 768 771 774 777 779 781 784 786 788 790 792 794 796 798 800 802 804 806 808 809 810 812 813 815 816 817 818 820 821 822 823 824 825
776 771 761 762 763 761 761 758 756 759 762 759 754 761 769 765 768 778 782 782 781 779 779 781 776 764 761 765 761 760 764 763 765 765 765 767 766 764 765 763 763 762 760 760 760 760 761 761 761 762 763 765 766 768 771 773 776 778 781 783 785 788 790 792 794 796 797 799 801 803 804 806 808 809 811 812 813 814 816 817 818 819 821 822 823 824
776 770 760 762 763 760 762 760 757 762 764 762 762 765 761 754 759 774 785 786 789 791 778 771 770 761 759 764 759 760 764 763 765 765 764 767 766 766 768 766 765 764 763 762 761 762 763 762 762 762 763 765 767 769 771 773 775 778 780 783 785 788 790 791 794 796 797 799 800 801 802 804 806 807 809 810 811 812 814 815 817 818 819 820 822 823
774 771 759 759 764 762 762 761 757 758 760 763 767 762 754 756 761 770 783 785 788 790 774 767 774 770 766 768 763 761 765 765 765 765 766 767 767 768 770 769 769 768 766 765 764 764 764 763 764 764 765 767 768 770 771 773 776 778 780 782 784 787 788 790 793 795 797 798 799 800 801 802 804 805 807 808 810 811 812 813 815 816 818 819 820 821
775 775 763 757 763 762 759 762 763 759 757 760 760 756 759 772 772 771 782 786 785 787 777 769 772 768 762 763 762 761 763 765 765 765 766 767 768 771 771 772 772 771 770 768 767 767 767 766 767 767 768 768 770 771 773 774 776 778 780 782 784 787 788 790 792 793 795 797 798 799 800 801 802 804 805 806 807 808 809 811 812 814 815 816 818 819
774 779 773 760 760 762 759 761 765 762 758 759 759 756 758 768 771 769 775 779 782 787 783 776 772 766 755 750 752 756 759 763 766 766 767 769 771 773 774 775 774 774 774 772 771 771 770 770 770 770 771 771 772 773 774 776 777 778 780 782 784 787 788 790 791 793 794 795 796 797 798 800 801 802 803 804 805 806 807 809 810 811 813 814 815 817
773 781 781 764 759 766 764 761 762 761 760 761 763 763 763 765 766 768 768 767 775 783 783 783 778 764 754 750 749 750 756 761 764 766 768 770 772 774 776 777 777 776 777 775 774 773 773 772 772 772 772 772 774 775 776 777 778 778 781 783 784 786 788 789 790 792 793 794 795 796 796 798 799 800 801 802 803 804 805 807 808 809 810 811 813 814
775 779 781 772 766 766 764 761 763 765 764 764 763 762 762 764 768 777 775 765 767 773 773 778 777 762 757 759 753 750 757 761 761 765 768 770 773 776 778 779 779 778 778 778 777 776 775 775 774 774 774 775 776 777 777 779 779 779 782 784 785 786 787 789 790 791 792 793 794 794 795 796 797 798 799 800 801 802 803 804 805 806 808 809 810 811
779 778 780 778 770 763 762 764 767 769 767 766 765 762 760 763 767 777 779 769 767 770 766 771 775 765 760 762 757 754 758 760 761 765 768 771 774 777 778 780 780 780 779 779 779 778 777 777 777 777 777 777 778 779 779 780 781 782 783 784 784 785 787 788 789 790 791 792 793 793 794 795 795 796 797 798 799 800 802 803 803 804 805 807 808 809
782 780 780 778 767 759 760 764 766 769 770 769 766 763 765 766 765 770 771 769 773 774 770 777 779 767 762 764 762 760 760 762 765 767 768 773 776 777 779 780 780 781 781 780 780 780 780 779 779 779 779 780 780 781 782 783 783 784 784 785 786 787 787 787 788 789 790 791 792 792 792 793 794 795 795 796 797 798 799 800 801 802 803 804 806 807
782 779 780 783 778 773 771 770 769 770 770 768 765 766 769 767 767 771 771 771 778 774 770 778 775 763 762 766 765 765 765 765 768 769 770 773 776 777 779 779 780 781 781 781 782 782 781 781 781 781 781 782 783 783 784 785 785 786 786 787 787 788 788 788 789 790 790 790 790 790 790 791 793 794 793 794 795 796 797 798 799 800 800 801 803 804
782 779 780 786 787 785 781 775 772 770 766 766 768 771 773 771 770 774 773 774 777 770 767 774 770 758 761 767 766 766 767 767 768 770 771 772 774 776 778 779 780 781 781 782 782 783 783 783 783 783 784 784 784 785 785 786 786 787 788 789 789 789 789 789 790 790 789 788 788 788 789 790 791 792 791 792 794 794 794 795 796 797 798 799 800 801
782 780 780 782 781 779 774 767 768 772 771 770 772 772 773 774 774 775 776 775 771 767 766 767 762 759 764 766 766 766 766 766 767 769 770 771 774 776 777 779 780 780 781 782 782 783 784 785 786 786 786 786 786 787 787 787 788 789 790 790 790 791 791 790 790 789 788 788 788 788 788 789 790 790 789 790 791 791 791 792 793 794 795 796 797 798
784 783 780 780 779 775 770 767 769 775 777 775 773 772 772 774 775 778 780 774 768 771 770 759 756 763 765 761 762 765 765 765 766 767 769 770 773 776 778 779 780 780 781 781 783 784 785 786 787 788 788 789 788 789 789 789 790 790 791 791 791 791 791 791 790 789 789 789 789 789 789 789 789 789 789 789 789 789 789 790 791 791 793 794 795 796
785 784 778 778 781 776 772 772 774 777 778 776 775 775 774 774 776 779 780 774 771 776 773 762 761 768 764 757 758 762 763 764 763 764 766 770 773 775 777 779 780 780 781 782 784 785 785 787 788 788 789 789 789 790 790 790 790 791 791 791 791 791 791 791 790 790 789 789 789 790 789 789 788 788 788 787 786 786 787 787 788 789 791 792 792 793
786 784 779 779 782 779 774 773 774 777 779 777 775 775 774 774 774 776 776 773 772 772 770 768 771 771 765 759 757 759 762 763 763 765 768 771 774 775 777 778 779 780 782 783 784 785 786 787 787 788 789 790 791 790 790 790 790 790 791 791 791 791 791 790 790 789 789 789 789 789 788 788 787 786 785 785 784 785 785 785 786 787 788 789 790 790
789 787 783 784 786 783 777 773 773 776 777 777 776 773 773 774 774 775 775 774 775 774 772 774 778 776 768 761 758 760 764 765 766 768 770 771 773 775 776 777 779 781 782 783 785 785 786 787 787 788 789 790 791 791 790 790 790 790 791 791 791 791 790 790 790 789 789 788 788 788 787 786 785 784 784 783 783 783 783 783 784 784 785 786 787 788
789 787 785 788 790 784 777 775 775 776 777 777 776 776 776 776 776 775 774 774 776 778 778 779 778 773 765 759 757 759 762 765 766 767 769 771 773 774 776 777 779 781 782 783 785 785 786 786 787 788 789 789 790 790 790 789 789 790 790 790 790 790 790 790 789 788 788 787 787 786 785 784 783 782 782 781 781 781 781 782 782 782 782 783 784 784
788 787 785 787 788 783 777 778 780 783 785 781 775 774 775 775 774 773 772 771 771 774 777 776 771 766 763 762 762 760 760 763 764 765 768 771 772 773 775 777 779 781 782 784 784 785 786 787 787 788 789 789 790 790 789 789 789 789 789 790 789 789 789 788 788 787 786 786 785 784 783 782 781 780 780 780 780 780 780 780 780 780 780 780 781 782
789 790 787 784 786 784 780 783 790 793 789 779 771 771 774 774 774 773 771 769 768 769 772 770 767 767 767 767 767 765 763 766 766 766 768 770 771 773 775 778 780 781 782 784 785 785 787 788 788 789 790 790 790 790 789 789 788 788 788 788 788 788 788 787 786 786 785 784 783 782 781 780 779 779 778 778 778 778 777 777 777 777 778 778 778 779
791 793 789 785 787 785 781 791 803 798 782 774 772 774 776 776 776 776 774 773 774 774 775 773 770 769 769 769 769 768 768 770 770 769 770 770 771 774 776 778 780 781 783 784 785 786 787 788 789 789 789 789 789 789 788 787 787 787 787 787 786 786 785 784 784 783 782 782 781 780 779 779 778 778 777 776 776 776 775 775 775 775 775 775 776 776
791 793 789 786 787 787 787 795 799 787 774 772 774 774 777 778 776 777 777 777 779 779 776 775 773 772 772 773 772 772 771 771 771 771 772 772 773 774 777 779 780 782 783 784 785 786 787 787 788 788 788 789 788 787 787 786 786 786 785 785 785 784 783 782 781 780 779 779 778 777 777 777 776 776 775 775 774 773 773 773 773 773 773 773 773 774
788 788 787 788 787 787 787 785 779 776 774 775 775 777 780 781 779 781 780 777 779 780 777 776 775 774 775 775 774 774 772 770 771 773 774 775 776 778 778 780 782 782 783 784 784 785 786 786 787 787 787 788 787 787 786 785 785 785 784 784 783 782 781 780 779 778 777 776 776 775 775 774 774 773 773 773 772 771 771 771 770 770 771 770 770 771
787 786 786 790 786 784 787 784 779 781 780 775 778 782 785 784 783 785 784 779 778 780 779 777 777 777 776 776 776 775 774 772 772 774 777 778 778 780 781 781 781 781 781 783 783 784 785 785 786 786 786 786 785 785 785 784 784 783 783 782 782 781 779 778 777 776 775 774 774 773 773 772 772 771 771 770 770 769 769 768 768 768 768 768 768 769
789 787 786 790 787 785 791 792 787 784 778 776 782 785 784 785 786 787 785 782 782 783 781 780 780 780 780 780 778 776 775 773 770 772 778 780 779 781 782 780 780 781 781 781 782 782 783 784 784 784 783 783 783 782 782 782 782 782 781 780 780 779 778 776 775 774 773 772 772 771 770 770 769 769 768 768 767 767 767 766 766 766 766 766 767 767
790 789 788 791 789 786 790 792 784 776 775 780 786 786 784 786 790 791 789 787 789 788 784 782 783 782 781 782 780 777 775 773 770 772 778 780 779 781 781 780 781 781 780 780 780 781 782 782 781 781 781 780 780 780 780 780 779 779 778 778 777 776 775 774 773 771 771 770 769 768 768 767 767 766 766 765 765 765 764 764 764 764 764 765 765 766
788 790 789 790 789 785 787 790 783 775 779 786 787 787 788 789 792 793 791 791 793 791 787 787 786 784 783 784 782 778 775 775 776 777 779 780 779 780 780 780 780 780 779 779 779 780 780 779 778 778 778 778 778 778 778 777 777 776 775 775 774 773 772 771 769 768 768 767 766 766 765 764 764 763 763 763 763 762 762 762 762 762 763 764 765 767
792 795 793 791 791 786 784 787 785 781 786 792 789 787 790 793 793 794 794 794 794 791 789 790 788 786 785 784 783 782 779 779 780 780 779 779 779 778 779 778 778 778 777 777 777 778 777 776 776 775 775 775 776 775 775 775 774 773 773 772 771 770 768 767 766 765 764 763 763 762 762 761 761 761 761 761 760 760 760 759 760 761 762 763 765 766
798 801 797 790 789 789 789 791 792 790 790 793 792 790 793 795 793 793 793 792 791 790 791 790 789 788 787 785 784 783 781 780 780 780 779 779 778 777 777 776 776 776 775 775 775 775 775 774 773 773 773 773 773 773 773 772 771 770 770 768 767 767 765 764 763 762 761 760 759 759 758 758 758 758 758 758 758 758 757 757 758 760 760 761 763 765
799 802 799 790 789 795 796 792 793 794 793 793 795 795 796 796 794 792 792 790 789 791 791 790 789 789 788 787 786 785 783 782 780 779 778 778 777 776 776 775 775 775 774 774 773 773 773 772 771 770 771 771 771 771 770 769 768 767 766 765 765 764 762 761 760 759 757 756 755 755 755 755 755 755 755 754 755 755 755 756 757 758 759 759 761 764
798 801 803 798 796 799 798 792 791 793 792 792 795 795 795 795 794 793 792 791 790 790 789 789 789 788 787 788 787 785 784 782 780 779 778 777 776 775 774 773 773 772 772 772 771 771 770 769 768 768 768 768 768 768 767 766 765 763 763 762 762 760 759 758 757 756 754 753 752 752 752 751 751 751 751 751 751 752 753 754 756 757 758 759 761 764
797 801 806 805 801 799 797 793 793 794 791 791 794 794 793 793 792 792 792 791 790 789 788 787 787 785 785 785 784 783 782 781 779 778 777 775 774 773 772 771 770 770 769 769 768 768 768 767 766 766 765 765 765 764 763 762 761 760 759 758 758 757 756 755 754 752 751 750 749 748 748 748 748 748 748 749 750 751 752 753 754 755 757 759 761 764
798 805 807 805 805 804 800 795 793 795 795 793 793 792 790 790 790 790 791 790 789 789 788 787 786 784 784 783 781 780 778 777 776 775 773 772 771 770 769 768 767 767 767 766 766 766 765 764 763 763 762 762 761 761 760 759 758 757 756 755 755 754 753 751 750 748 747 746 745 745 745 745 745 746 747 748 749 750 751 752 753 755 758 760 762 765
803 810 808 803 803 805 803 797 794 794 793 792 792 790 789 789 788 789 790 790 789 788 787 785 784 783 781 780 778 777 774 773 773 772 770 770 768 767 766 765 764 765 764 764 764 763 762 761 761 760 760 759 758 758 757 755 755 754 753 752 752 751 749 747 746 744 742 741 741 741 741 742 743 745 747 748 749 750 751 753 755 757 760 762 764 766
806 810 807 805 805 803 799 795 794 794 793 791 790 789 789 790 790 789 788 788 788 786 785 783 782 780 779 777 776 775 773 771 770 769 768 766 765 764 763 762 762 762 761 761 761 761 760 759 758 758 757 756 755 755 754 752 752 751 751 750 749 747 745 743 741 739 738 738 739 739 740 741 743 745 747 748 750 752 753 756 758 760 763 765 767 768
807 808 806 808 809 803 798 797 798 800 798 793 791 790 790 790 789 788 787 786 784 783 782 780 779 778 776 774 773 772 770 768 767 766 765 763 762 761 760 760 760 759 759 759 758 758 757 757 756 755 755 753 753 752 751 750 750 750 750 748 746 744 742 739 738 737 736 736 737 738 739 741 743 745 747 749 751 753 755 758 761 763 765 767 768 770
809 810 809 811 810 806 802 801 801 801 799 794 792 791 790 788 788 787 785 783 781 780 779 778 777 774 772 771 769 768 767 765 764 764 762 760 760 759 759 758 758 757 756 756 756 755 754 753 753 752 751 751 750 750 749 749 749 749 749 747 744 742 741 739 738 737 737 737 738 739 740 743 745 746 748 750 753 755 757 760 764 766 767 769 770 772
Wind_Speed
2 5 5 3 1 2 2 2 4 3 2 3 3 4 5 4 4 3 4 4 4 5 4 2 3 4 2 1 2 3 4 6 8 8 6 6 7 7 9 9 10 9 8 11 13 15 16 14 13 13 11 12 13 14 16 15 14 13 12 12 12 12 12 11 10 9 8 7 6 5 5 5 5 6 6 5 5 5 5 5 4 4 4 3 3 3
3 6 3 0 3 3 1 1 1 1 2 4 5 6 6 6 4 5 3 3 3 5 3 2 5 6 3 1 3 4 6 8 9 9 8 8 8 7 8 9 9 8 8 11 12 15 17 15 14 14 13 14 15 15 16 16 15 14 13 13 13 13 13 11 10 9 7 6 5 5 5 5 6 6 5 6 6 5 5 5 5 5 4 4 3 3
6 6 3 4 2 3 2 2 4 4 4 5 5 6 5 5 3 5 4 3 1 4 3 1 6 6 3 2 4 5 6 6 7 8 8 8 8 7 7 8 8 9 10 11 11 14 17 16 16 16 14 15 16 16 17 16 16 16 14 13 13 14 14 12 10 9 7 6 5 5 6 5 5 5 5 6 6 6 6 6 5 5 5 4 4 4
4 2 6 6 3 4 4 4 6 4 4 6 5 6 5 2 3 3 5 4 1 3 4 3 6 7 5 5 6 6 5 4 4 6 6 6 7 7 7 7 8 10 11 12 12 13 16 17 18 18 17 17 16 16 17 17 17 17 15 15 14 15 14 12 12 9 8 8 7 6 7 6 5 6 6 6 6 6 6 6 5 5 5 5 5 5
0 7 6 3 3 5 5 6 7 6 5 6 6 7 5 2 4 4 2 3 3 3 3 5 7 7 6 8 7 7 6 5 5 5 5 6 7 7 8 8 8 9 10 11 12 14 15 18 19 20 19 18 18 17 18 19 19 18 17 16 15 15 15 13 13 12 10 11 10 8 8 7 6 6 7 6 7 6 6 6 5 6 6 6 6 6
2 6 2 3 4 5 5 6 7 6 5 5 7 9 7 4 5 4 2 3 5 5 2 4 7 4 4 6 5 6 7 7 7 6 6 5 7 8 9 10 9 9 10 10 12 14 16 18 20 20 20 20 20 20 20 20 21 20 18 17 17 15 15 14 15 15 12 11 12 11 10 9 8 7 7 6 7 6 6 6 6 7 7 7 7 6
3 4 2 3 4 5 6 6 5 6 7 4 5 8 9 7 6 6 5 5 6 4 2 2 7 4 3 5 5 5 6 8 7 6 5 5 6 7 8 8 8 8 9 10 12 13 14 17 19 20 22 23 23 21 20 19 21 21 18 18 18 16 15 15 16 16 13 12 12 12 11 10 9 8 7 7 7 7 6 7 7 7 7 7 7 6
3 5 4 4 4 5 7 5 5 7 8 1 2 5 9 8 7 7 7 6 5 3 2 5 6 6 6 4 5 5 7 8 8 6 6 5 5 5 5 6 6 6 6 7 10 12 14 16 18 20 21 22 22 20 19 20 21 21 18 18 19 17 15 16 18 18 15 13 13 12 10 9 8 7 8 8 8 7 7 7 7 7 7 7 6 6
3 4 5 5 5 6 4 1 3 8 7 1 3 2 5 5 6 6 7 6 4 3 5 6 5 6 7 3 5 6 8 9 8 6 5 5 4 3 3 4 5 6 6 7 8 10 12 15 19 20 20 21 21 20 20 21 22 21 19 19 19 18 16 17 19 19 16 13 13 12 11 10 8 7 8 9 8 8 8 7 7 7 7 7 6 6
2 1 1 5 6 4 1 6 2 6 4 2 2 3 4 4 5 5 6 6 3 5 8 5 4 6 7 4 6 7 7 7 5 4 4 4 3 2 1 3 5 6 6 7 8 9 11 14 17 19 20 21 21 20 19 19 21 21 19 20 20 20 17 17 21 21 17 15 13 13 12 11 10 8 7 8 9 9 8 8 8 7 7 7 7 7
3 2 0 4 6 2 4 4 2 2 1 3 5 5 5 5 5 5 5 4 5 7 7 3 4 5 6 5 4 3 0 1 0 2 3 3 1 1 3 4 5 6 6 7 8 8 11 13 15 17 18 20 20 19 19 19 20 21 20 21 21 21 19 18 21 22 19 17 15 13 13 13 12 10 8 8 9 9 9 8 8 7 7 7 7 8
5 5 3 3 3 2 1 2 2 1 3 5 6 6 6 5 4 5 5 4 6 7 2 4 3 6 7 5 2 2 3 3 1 2 1 1 3 5 6 6 7 7 7 7 7 6 8 11 14 16 18 19 18 18 19 19 20 20 20 21 21 21 20 18 21 23 20 18 17 15 14 14 13 12 11 10 10 10 10 9 9 8 8 8 8 8
5 5 4 4 4 5 7 5 4 4 5 6 6 6 6 6 5 6 6 5 7 4 4 5 3 5 7 4 2 4 3 2 0 2 2 4 5 6 7 7 6 6 6 6 5 4 3 6 10 14 16 18 17 18 19 18 19 19 20 21 21 22 21 19 20 23 21 19 18 16 15 14 14 13 12 11 10 11 10 10 10 9 9 9 9 9
4 4 6 5 5 4 8 7 4 5 6 7 7 6 6 6 6 7 6 6 7 2 4 4 2 5 7 2 4 4 3 3 2 1 2 4 5 6 6 6 6 6 6 5 4 3 0 3 6 10 13 15 15 16 17 17 18 18 18 20 21 21 21 20 20 21 21 20 20 18 16 15 14 13 14 12 11 11 11 10 10 10 9 9 10 10
5 3 4 3 2 3 7 6 5 4 5 7 6 6 7 6 6 7 6 6 7 2 4 5 3 5 5 1 4 3 4 3 2 2 2 3 3 4 5 6 7 7 7 6 5 4 2 2 5 8 9 10 11 13 15 15 16 17 17 18 20 20 20 20 20 21 21 21 20 18 17 15 14 13 13 13 12 11 11 10 10 11 10 9 9 10
7 4 4 3 2 2 4 3 4 7 6 5 5 7 7 5 6 5 3 3 4 4 3 4 4 4 1 4 4 4 5 5 4 3 3 3 4 4 5 7 7 7 7 7 6 5 4 2 5 6 8 8 9 12 13 13 14 15 16 16 17 17 17 17 19 19 20 20 19 18 17 16 15 14 13 13 12 12 12 11 11 11 11 10 9 10
6 3 6 4 2 2 2 2 3 6 5 2 5 7 3 2 6 5 1 2 1 7 7 4 6 5 2 4 7 7 7 6 6 5 5 5 6 6 7 7 7 8 9 9 7 6 5 4 4 5 6 6 8 10 11 12 13 14 15 15 15 15 14 15 17 17 17 17 17 17 18 18 17 16 16 14 13 13 13 13 12 11 11 11 10 10
4 4 4 4 2 4 1 2 3 4 5 4 5 4 1 1 4 5 5 3 5 8 7 5 8 8 6 4 7 9 8 8 7 6 6 6 6 7 7 7 8 9 9 10 10 8 7 7 6 5 5 5 6 7 8 9 9 10 12 13 14 15 15 15 15 16 16 16 16 16 18 19 19 18 17 16 14 13 13 13 13 12 12 12 12 12
3 6 3 4 2 3 4 4 4 4 4 6 4 1 2 5 6 5 6 6 8 8 7 7 9 8 8 5 6 9 10 9 8 7 7 7 7 7 7 7 8 8 8 9 10 9 8 8 9 8 6 6 5 5 5 6 6 6 8 9 10 12 13 14 14 14 15 16 16 16 16 17 18 18 17 17 16 15 14 15 14 14 14 13 14 14
2 5 2 3 2 2 4 6 7 5 5 4 4 4 4 4 6 6 5 6 8 8 8 9 9 7 6 4 5 9 10 10 9 8 7 7 7 6 6 6 7 8 8 9 9 10 10 10 11 10 9 9 7 5 5 4 3 3 4 6 8 9 10 12 13 12 14 15 15 15 15 16 17 18 18 17 17 16 15 15 15 15 15 15 15 15
2 4 5 3 4 3 5 4 4 5 3 4 6 7 6 4 4 5 7 7 7 8 8 8 9 7 1 2 3 6 10 10 10 9 7 7 7 6 6 6 6 8 8 8 9 10 11 12 14 13 12 12 10 8 7 5 4 4 1 2 5 6 8 10 12 12 13 14 15 16 16 17 17 17 17 17 17 17 16 15 15 15 15 15 16 16
2 3 6 5 4 6 3 3 3 6 5 5 6 7 7 7 6 7 9 7 6 8 9 8 10 7 2 3 2 5 10 10 10 10 8 7 7 7 6 6 6 7 8 9 9 10 11 13 15 16 16 15 14 12 11 8 7 6 3 1 1 2 5 6 8 10 12 14 15 16 16 17 17 17 17 17 17 17 16 15 15 15 15 15 15 17
2 3 6 7 8 7 1 5 2 3 4 6 6 6 7 6 7 9 9 7 6 7 7 7 10 5 4 3 1 5 10 9 9 9 8 8 7 6 6 6 7 7 8 8 8 9 10 12 14 16 17 17 17 16 15 13 12 10 8 5 3 2 2 4 6 8 9 11 13 13 13 15 16 16 17 17 17 17 16 15 15 15 15 15 14 15
1 3 6 7 8 7 3 3 3 2 3 7 7 6 6 6 7 8 8 8 7 8 8 8 10 5 5 4 1 5 8 8 8 7 7 7 6 5 6 6 6 7 7 8 8 8 9 11 12 13 14 15 16 15 15 15 14 14 13 11 9 7 5 2 5 7 8 9 11 11 10 11 13 14 15 15 15 16 16 16 15 14 14 14 14 15
2 4 4 6 7 7 6 5 5 5 6 7 6 4 4 7 7 6 7 7 7 11 13 10 10 6 4 6 4 5 7 8 8 7 6 7 6 5 5 5 5 6 6 7 7 8 8 9 10 11 12 12 13 13 13 13 13 14 14 13 11 11 10 7 4 3 5 7 8 8 8 9 11 13 13 12 13 14 15 15 15 15 15 15 15 15
4 5 4 6 7 6 7 6 3 2 4 5 4 3 4 7 8 6 7 8 9 11 12 10 11 7 4 8 7 7 8 8 9 8 7 7 7 7 6 5 5 5 5 6 7 7 7 8 9 10 11 10 11 11 11 11 12 11 11 11 10 10 10 9 8 6 5 3 4 5 6 7 10 12 11 12 14 16 15 15 15 15 15 15 16 15
4 5 6 9 10 8 9 8 4 5 6 6 5 6 5 5 6 6 7 9 9 10 11 11 12 11 5 8 10 9 9 9 9 9 8 8 8 8 7 6 5 5 5 5 6 6 7 7 8 9 9 9 9 9 9 9 10 10 9 9 8 8 9 8 9 9 9 8 7 5 5 6 8 9 10 12 14 14 14 14 15 15 15 15 15 15
5 6 8 11 12 12 13 12 7 6 9 12 11 10 8 6 7 8 9 9 9 9 10 10 12 13 10 8 10 10 9 9 10 9 8 8 8 8 7 7 7 6 5 5 5 6 6 7 7 7 8 8 8 8 8 7 8 8 7 7 7 7 7 7 7 7 7 7 7 6 6 6 6 6 8 10 10 11 11 13 14 14 14 14 16 17
5 7 8 10 12 13 13 12 9 8 10 12 12 12 12 10 10 10 11 12 11 10 11 11 12 12 10 8 9 9 9 10 9 7 6 7 8 8 8 9 8 7 6 6 5 5 6 5 5 6 7 7 7 7 7 6 6 7 6 6 7 7 7 7 6 6 6 5 5 5 6 7 6 6 6 6 7 8 10 11 12 12 13 14 16 17
4 5 6 9 12 13 13 13 11 10 11 13 14 14 14 14 14 13 13 14 14 15 14 13 13 11 8 9 9 4 3 5 4 4 5 8 9 9 9 9 8 7 6 5 5 5 5 4 5 6 7 7 7 7 7 6 7 7 7 7 7 7 7 7 7 6 6 6 5 6 7 7 8 8 8 7 7 7 8 9 10 12 14 15 16 16
3 3 2 5 10 11 12 14 13 12 13 15 15 15 15 15 15 14 13 12 13 14 13 12 12 10 8 11 11 3 2 1 3 5 7 8 9 10 9 8 7 6 6 5 4 4 4 4 4 6 6 6 7 7 7 7 7 7 7 7 7 7 7 7 7 7 7 7 7 7 8 8 8 9 9 9 9 9 9 8 9 11 13 13 14 15
3 4 3 5 9 9 10 13 13 12 14 16 16 15 15 15 14 13 12 10 10 11 11 11 12 10 7 11 14 10 6 6 7 7 7 7 8 10 9 8 7 6 5 5 4 3 3 4 4 5 6 6 6 6 7 7 8 8 8 8 8 8 8 8 7 8 8 8 9 9 9 9 9 9 9 10 10 10 10 10 10 11 12 12 13 14
4 6 5 7 9 9 8 8 8 8 10 12 10 11 14 16 15 15 14 13 13 12 10 10 9 6 4 4 8 11 11 10 8 7 7 8 9 10 9 8 7 6 5 4 3 3 3 3 4 5 6 6 6 6 7 8 8 8 8 9 9 8 9 8 8 9 9 10 11 11 11 10 10 10 10 9 10 10 10 11 11 12 12 12 12 13
5 6 6 7 8 9 7 4 4 7 9 5 1 0 6 10 12 14 14 13 12 10 8 9 9 7 6 5 7 10 9 6 4 4 5 6 8 9 8 7 6 4 4 3 2 3 3 3 4 4 5 5 5 6 7 7 7 8 8 9 9 9 9 9 9 9 9 11 11 11 11 11 11 11 10 10 10 10 11 11 12 13 13 13 13 13
5 6 6 6 7 8 6 4 6 8 5 2 4 3 1 3 6 9 9 6 5 6 7 9 10 9 7 6 5 5 3 1 2 3 5 6 7 8 7 6 4 3 2 2 2 3 3 3 4 4 5 5 6 7 7 7 8 9 10 10 11 11 11 11 11 11 11 12 12 11 11 11 11 11 11 11 11 11 12 12 12 13 13 13 13 13
6 6 6 6 6 7 6 6 8 5 3 2 1 2 1 3 4 6 6 2 2 3 4 4 4 3 1 1 2 2 2 4 4 3 4 4 5 6 5 3 1 1 2 2 3 4 4 5 5 6 6 6 7 7 8 8 9 9 10 11 12 12 13 13 13 13 13 13 12 11 11 11 11 11 11 12 12 12 12 12 13 13 13 14 14 14
8 7 6 7 7 7 8 9 8 8 7 6 4 2 1 2 2 3 5 2 3 3 2 2 1 1 0 1 2 2 3 6 5 5 6 6 4 3 1 1 2 2 3 4 4 4 5 5 6 7 7 7 8 9 9 10 9 10 10 11 12 13 13 14 14 14 15 14 13 12 12 13 13 13 12 12 12 13 13 13 13 14 14 14 14 15
7 7 6 7 7 6 8 9 8 10 9 3 2 4 3 2 2 3 5 3 3 4 3 2 2 2 1 1 0 2 5 7 6 5 6 5 4 3 2 3 3 4 5 5 5 5 6 6 7 8 9 9 10 10 10 11 11 11 11 11 12 13 13 14 15 16 16 15 14 14 14 14 14 14 13 13 13 13 13 13 13 13 13 14 15 16
5 6 6 7 7 6 8 8 8 9 6 2 5 3 3 2 2 3 5 4 2 5 4 3 3 3 2 3 3 3 6 8 7 5 5 4 3 4 5 5 6 7 7 6 6 7 7 8 9 10 10 11 11 12 12 12 12 12 12 12 13 13 14 14 16 17 16 16 15 16 15 15 15 15 15 15 14 14 13 13 13 13 13 15 16 15
6 5 6 8 8 8 8 8 7 7 3 3 4 3 3 3 1 4 6 3 4 7 6 4 4 4 4 5 5 5 6 7 5 1 5 6 5 5 6 6 7 8 9 9 9 9 10 11 11 10 11 11 12 13 13 13 13 13 13 14 14 14 14 16 17 17 17 17 17 17 16 16 16 16 16 16 16 15 15 14 14 14 14 14 14 13
6 5 6 7 8 9 10 9 8 6 1 4 4 4 3 1 3 6 5 1 5 8 8 7 7 7 6 6 5 5 5 6 6 7 7 8 7 6 7 8 9 10 11 11 11 11 12 13 12 12 13 13 13 14 14 14 14 14 14 15 15 15 16 18 18 17 18 18 17 17 17 17 17 17 18 18 18 17 17 16 15 15 13 11 11 12
5 5 6 7 7 8 8 7 9 5 3 7 5 3 2 2 4 3 3 4 6 9 9 9 9 8 7 7 6 6 7 7 8 9 9 10 10 9 10 11 11 12 12 13 13 13 13 14 14 14 14 14 14 15 15 15 15 15 16 16 17 18 19 19 18 18 19 19 18 18 18 18 18 19 20 20 19 19 19 17 15 13 13 12 13 15
3 4 6 6 6 7 7 7 8 5 3 7 6 1 1 3 4 4 5 6 7 9 9 8 8 8 8 8 7 8 9 9 10 10 10 11 11 11 12 13 14 14 14 14 14 14 13 14 15 16 16 15 16 16 16 16 17 17 17 17 19 20 20 20 19 19 19 19 19 19 19 19 20 20 21 21 20 19 19 17 14 13 14 15 17 19
4 4 6 5 3 4 6 6 3 1 2 4 5 3 3 5 6 7 8 8 8 7 6 6 6 6 7 8 9 10 11 11 11 11 11 11 11 11 13 14 15 16 16 16 16 15 15 16 16 17 17 17 16 17 17 18 19 18 18 19 20 20 20 20 20 20 21 21 21 21 21 21 21 22 22 22 21 19 17 15 14 14 15 18 22 23
1 2 4 4 3 4 7 7 6 5 5 5 6 6 8 9 8 8 9 9 8 7 6 6 7 8 8 9 10 10 10 11 12 12 12 12 12 13 14 15 17 18 17 17 17 16 16 17 18 18 17 17 17 18 19 19 19 20 20 21 21 21 22 22 22 22 23 23 23 23 22 22 22 22 22 20 18 17 15 13 14 15 16 19 22 22
3 3 5 5 6 8 9 9 8 9 10 9 8 9 10 10 8 7 8 9 9 9 9 9 10 11 11 11 11 10 10 11 12 12 13 13 14 15 16 17 19 19 19 18 18 17 17 18 18 17 17 17 18 18 19 19 19 20 22 22 22 23 23 23 24 24 24 24 24 23 23 22 22 21 19 15 13 14 13 14 16 18 21 23 23 21
3 2 4 7 8 8 7 5 7 9 11 12 12 12 11 10 9 9 9 9 9 10 10 11 12 13 13 13 13 13 13 13 14 14 13 13 14 15 15 17 18 18 19 19 18 18 18 18 17 16 17 18 19 18 19 19 18 20 21 21 21 22 23 23 24 25 25 25 25 23 23 21 18 14 11 9 11 13 15 18 21 22 24 27 26 21
2 3 5 8 8 8 8 10 11 13 13 12 12 11 10 10 11 12 12 11 11 12 12 12 13 13 12 13 14 15 16 16 16 15 14 13 14 13 14 17 18 18 19 19 19 19 18 18 17 18 18 19 19 19 18 18 18 19 20 20 21 22 22 24 25 25 26 26 24 21 18 14 10 10 10 12 15 19 21 23 24 24 26 27 26 21
4 4 6 7 8 9 10 11 11 12 12 12 12 12 11 11 13 15 15 14 15 15 15 16 16 15 14 15 15 16 17 17 16 16 16 15 13 14 16 19 20 19 19 19 19 18 18 18 19 19 19 19 18 17 17 17 18 18 18 18 20 20 22 24 24 24 23 20 14 10 8 10 13 16 17 18 20 23 25 27 27 25 25 24 23 20
5 6 6 6 7 8 8 9 11 11 11 12 13 15 15 15 16 17 17 17 17 17 16 17 18 18 18 18 17 16 16 16 16 16 16 15 15 17 19 20 20 20 20 20 19 18 18 18 18 18 18 17 17 17 17 16 16 15 15 16 17 17 17 17 14 10 8 7 9 14 17 18 18 22 25 25 24 24 25 25 23 21 20 20 18 18
4 6 6 7 8 9 11 13 12 11 12 13 15 17 17 16 16 17 17 17 17 17 16 16 17 18 18 18 19 17 15 15 17 17 16 15 17 20 20 20 20 21 20 20 18 18 18 18 17 17 17 17 16 17 16 12 9 9 11 12 11 9 6 3 6 9 11 14 16 18 20 20 22 26 27 24 21 21 22 21 19 20 21 21 19 18
Wind_Direction
252 236 223 239 252 60 39 344 332 350 340 286 246 239 238 228 204 129 98 73 17 293 203 149 275 251 262 79 136 195 204 225 225 214 218 216 212 210 207 206 195 186 172 165 168 174 181 182 180 181 179 179 183 189 191 188 185 184 182 178 176 179 181 179 179 179 180 178 171 169 164 150 145 140 131 124 112 104 99 97 102 102 110 127 141 158
236 243 219 57 27 46 64 196 222 253 252 241 236 227 220 229 205 116 99 95 32 296 205 146 262 242 235 161 141 177 207 220 223 219 221 223 224 223 219 215 201 188 172 167 170 177 185 185 182 183 183 183 184 188 190 189 188 188 188 185 180 180 184 186 185 182 181 180 174 166 159 148 141 137 134 127 118 111 106 101 98 98 103 116 126 132
220 236 134 99 82 104 142 192 203 216 228 228 230 232 224 220 196 125 122 133 70 287 253 182 272 257 237 226 175 186 210 214 218 225 228 229 232 232 228 223 210 199 185 179 177 180 187 190 187 187 189 190 189 188 189 189 188 187 189 188 184 183 184 187 190 187 179 173 163 151 146 141 136 129 120 118 119 119 114 109 103 102 105 107 118 125
227 160 107 111 144 165 167 181 199 206 213 223 223 228 222 180 223 198 144 149 137 290 293 304 280 264 235 222 206 196 205 202 207 227 238 241 243 242 242 237 224 212 200 192 186 183 189 192 191 192 193 191 188 188 189 188 187 187 189 189 187 184 184 186 190 186 175 170 161 146 141 133 129 130 126 123 125 127 122 115 107 109 115 111 112 118
263 86 99 139 185 209 196 178 202 222 208 208 225 241 241 181 241 263 136 161 201 202 267 281 264 255 227 223 213 182 189 208 207 216 229 235 238 242 250 247 238 230 220 206 196 190 191 195 195 195 193 189 188 190 190 189 188 187 188 189 187 185 184 186 188 184 176 173 165 152 148 142 135 139 145 146 140 138 132 121 113 116 123 119 113 114
92 86 131 198 201 219 216 198 206 234 237 204 209 232 252 247 235 249 212 221 241 210 188 285 270 247 181 213 213 170 187 204 196 204 217 221 222 227 238 241 238 235 233 226 213 201 197 197 196 194 193 190 192 193 192 191 190 188 188 188 186 185 186 186 189 189 181 175 169 163 162 160 159 159 160 158 150 147 136 121 119 121 124 124 120 117
94 113 190 222 219 212 223 226 197 221 251 227 189 210 231 242 227 228 226 231 259 250 136 271 275 265 195 203 189 176 201 194 175 188 208 212 214 218 230 237 238 234 231 232 227 219 209 202 197 195 193 192 194 194 190 189 189 189 188 187 186 185 186 186 190 191 185 182 178 173 171 167 168 165 156 152 147 143 133 124 125 126 128 130 127 124
124 149 180 218 235 222 228 227 179 214 248 274 86 199 213 220 215 221 233 235 267 296 199 221 258 273 255 218 162 179 213 198 173 172 193 202 209 218 236 245 252 255 247 240 234 228 221 212 204 199 194 193 194 191 186 186 187 188 187 185 185 187 187 186 191 191 187 189 185 178 176 171 172 164 150 149 145 142 137 131 129 130 133 135 134 134
154 192 196 219 240 236 243 50 144 220 243 27 42 223 207 212 215 224 242 250 266 283 251 221 220 258 259 213 161 186 219 213 183 163 182 188 190 212 248 273 286 289 281 271 256 243 232 221 213 204 196 192 191 189 187 187 185 185 185 185 184 188 189 188 193 193 190 194 190 182 178 172 172 163 152 155 151 148 146 140 137 133 134 137 135 135
152 224 235 241 250 251 15 46 52 238 243 89 142 186 177 193 209 225 249 260 242 249 265 241 197 256 269 225 191 196 220 226 185 157 175 174 179 204 302 311 305 302 293 282 273 263 248 231 219 210 199 189 186 187 187 185 183 183 183 185 186 189 191 191 195 195 192 195 195 189 182 175 173 168 164 164 158 157 157 152 149 144 140 139 136 135
136 118 347 248 262 315 54 64 34 280 195 151 184 195 192 199 210 228 244 264 254 246 259 224 190 255 274 247 220 195 119 10 144 190 179 168 204 344 353 330 323 320 310 296 284 274 256 236 219 208 198 188 182 181 183 182 183 183 183 186 189 191 192 193 196 197 194 196 198 196 189 181 177 175 176 177 170 169 169 166 164 160 154 148 146 144
180 189 180 199 233 254 203 174 139 168 195 198 213 220 222 218 217 234 228 223 251 253 205 124 177 239 256 253 215 111 81 63 321 264 251 307 328 353 348 339 340 330 319 309 299 288 258 230 207 196 193 187 180 177 181 183 183 184 186 187 189 192 194 194 196 198 197 197 200 201 196 189 184 180 183 188 186 180 179 179 176 170 165 161 159 158
216 196 144 147 184 213 232 216 165 178 205 219 229 229 236 237 225 239 242 232 246 247 116 121 174 231 251 257 125 121 119 105 47 315 331 339 345 351 343 340 342 332 329 324 316 313 260 219 200 193 190 186 181 180 184 185 183 185 187 189 191 192 194 195 197 198 199 200 202 203 201 197 192 189 190 193 194 192 190 189 185 180 178 175 173 173
235 161 148 175 167 190 233 232 205 198 202 217 229 231 243 250 244 245 247 251 253 225 116 132 184 239 249 242 91 102 103 94 98 43 3 360 356 349 343 346 351 351 352 350 351 360 298 191 191 194 190 184 181 182 185 187 186 186 188 191 194 194 195 196 197 199 201 203 204 205 205 201 198 197 196 198 199 199 200 198 193 191 189 186 184 184
264 201 158 185 130 168 225 252 288 284 225 221 235 243 249 254 258 262 262 263 264 235 130 143 189 247 247 120 82 95 112 114 119 96 63 32 18 5 4 8 7 7 12 16 24 27 38 150 170 180 180 177 176 177 181 186 188 190 191 193 196 196 195 197 199 200 203 205 207 207 208 206 204 203 202 204 205 202 205 206 201 199 199 197 193 190
264 258 97 81 68 193 233 269 295 280 247 218 232 245 252 260 258 267 296 315 305 284 220 186 220 255 202 124 126 136 138 137 129 114 103 76 57 42 34 29 20 18 23 28 38 43 45 102 147 157 164 168 172 174 178 185 188 192 194 196 198 198 197 198 202 204 206 207 208 209 210 210 208 208 207 207 207 204 205 209 208 207 205 203 198 191
254 248 104 113 133 138 294 302 231 262 266 191 226 243 252 299 271 264 253 98 292 269 258 234 243 247 209 172 155 153 154 147 143 132 114 90 77 67 51 37 28 29 31 34 42 51 56 75 101 125 145 158 170 176 181 188 190 194 197 197 197 197 197 199 204 209 211 211 212 212 213 213 213 213 213 211 209 206 206 209 213 213 209 205 201 191
279 263 155 172 176 113 75 279 213 243 273 247 240 242 161 250 256 253 258 237 230 255 257 230 237 248 251 217 155 163 171 157 151 139 123 110 95 79 62 46 36 36 38 41 45 46 53 62 70 82 110 137 158 172 179 185 188 193 199 201 202 200 200 204 205 209 212 214 217 217 217 217 218 218 219 218 216 213 212 211 212 213 210 206 202 193
284 266 189 170 214 143 153 234 220 187 231 267 285 272 229 251 241 227 248 257 251 258 262 243 237 247 256 238 172 182 183 164 154 145 134 120 99 81 64 51 41 39 39 45 49 47 49 55 59 65 76 96 117 136 152 168 177 188 198 204 209 210 209 211 210 209 212 216 220 222 221 221 222 223 223 223 222 219 217 215 213 212 209 205 204 200
241 262 235 145 143 174 204 229 238 207 188 229 257 232 233 268 270 254 251 260 263 264 269 265 255 250 261 260 212 199 181 164 157 145 134 115 95 77 63 51 42 43 40 44 54 56 58 61 64 69 72 76 81 88 99 122 146 166 198 211 213 217 217 218 219 217 217 220 223 224 224 223 225 227 227 226 226 224 222 220 217 214 210 207 206 203
220 244 257 199 147 221 242 225 269 284 231 222 237 233 229 240 263 267 256 252 261 265 267 271 267 263 329 7 257 195 164 159 157 144 132 116 99 81 67 56 49 52 48 46 54 58 60 64 67 72 75 76 76 75 76 77 84 93 111 232 221 222 223 224 225 225 225 227 227 227 226 227 228 229 230 230 229 229 229 225 221 219 214 210 208 203
254 240 255 255 225 241 248 79 14 339 325 287 267 254 254 251 250 259 255 244 246 262 268 269 270 275 49 34 293 163 150 154 152 143 135 121 107 91 79 69 63 62 57 54 56 58 59 61 64 68 71 74 77 77 78 78 78 86 100 130 216 235 240 242 238 234 235 236 233 231 231 231 231 231 232 232 232 234 233 229 225 222 216 212 209 205
330 268 257 259 256 262 343 79 57 322 305 290 280 273 276 268 254 256 260 262 255 261 273 272 269 277 86 66 310 148 148 150 144 141 138 124 110 102 97 89 80 74 68 64 61 60 63 64 66 68 69 70 70 70 72 73 72 73 76 77 65 30 288 268 259 249 243 241 239 238 238 238 236 234 232 233 235 237 236 234 230 225 219 217 213 209
200 255 255 253 254 258 237 136 152 186 248 262 254 253 268 272 270 271 277 288 277 263 267 264 260 255 108 100 107 137 142 144 140 139 137 130 120 114 112 104 96 89 81 75 69 66 67 67 67 67 67 69 69 68 68 68 68 66 62 61 59 47 32 339 274 260 249 243 243 242 242 244 245 242 238 236 239 240 239 237 233 228 224 222 218 214
226 247 249 258 257 245 225 204 195 192 214 246 252 246 267 275 276 275 272 275 264 258 262 261 262 261 126 127 160 156 153 153 148 145 142 140 140 135 126 117 109 103 96 89 80 72 67 64 63 62 62 66 68 68 68 66 65 64 59 57 55 48 42 34 8 302 259 246 247 248 247 248 250 248 244 242 245 244 240 237 235 232 227 224 221 217
251 263 247 256 259 249 245 243 239 241 231 230 236 236 250 261 261 263 264 257 250 256 258 255 265 269 145 146 174 175 173 173 160 156 160 156 155 154 147 140 129 115 106 98 89 81 72 64 62 59 56 58 60 61 63 63 61 59 57 54 48 45 41 34 26 17 1 334 294 274 265 256 252 252 248 246 249 248 243 242 239 236 232 227 224 216
251 263 251 254 260 264 272 280 331 341 289 263 256 244 230 231 243 254 261 257 260 265 256 250 263 267 216 177 189 185 186 190 175 169 174 171 166 162 157 152 143 131 115 101 92 86 80 72 64 60 56 53 53 53 54 55 54 51 49 47 42 39 34 25 20 18 15 10 356 333 309 281 265 262 255 247 247 247 248 248 244 241 239 234 228 218
250 253 249 252 257 265 275 283 301 307 279 273 273 263 248 234 232 241 250 261 274 273 259 260 267 262 250 229 218 204 191 190 187 188 190 180 171 165 159 156 151 144 132 112 95 82 75 72 65 60 58 55 52 52 51 51 50 45 39 36 34 31 28 22 15 10 10 6 354 344 332 312 293 279 265 255 251 250 249 249 246 242 239 233 228 220
260 258 255 254 259 264 268 271 272 267 264 265 266 264 260 254 247 246 249 257 264 261 262 280 281 262 253 256 246 226 211 209 207 207 200 182 174 171 168 168 163 153 140 121 104 86 72 65 61 56 52 47 44 43 43 41 40 37 32 28 24 20 18 13 5 360 357 348 334 326 319 312 306 295 281 271 263 255 249 247 245 239 232 228 227 225
272 270 268 264 267 268 266 264 259 255 257 259 257 256 257 257 255 254 253 254 257 259 264 278 281 267 260 272 272 250 206 226 219 187 186 186 182 179 179 179 168 153 139 120 103 91 79 65 57 52 45 37 29 24 26 26 21 19 21 19 13 8 4 357 351 346 339 328 317 308 302 299 298 295 293 287 276 264 255 245 235 230 230 232 232 230
251 277 306 277 271 269 267 263 256 251 256 258 256 255 256 257 254 253 255 254 254 260 264 265 268 265 260 263 264 255 105 178 195 185 194 192 186 185 186 181 165 149 137 119 102 90 78 63 51 42 37 31 19 12 15 14 7 6 9 5 0 355 348 340 334 328 321 315 308 299 291 286 283 282 281 280 274 268 261 248 229 225 229 232 232 231
238 261 266 264 266 268 265 260 257 262 267 263 257 253 251 251 251 251 252 246 241 250 257 256 259 264 261 253 250 247 243 240 235 224 210 191 185 190 189 177 164 151 135 118 102 84 63 49 40 29 20 14 6 360 3 360 353 354 355 351 349 344 334 329 321 313 310 305 299 296 292 288 282 276 274 272 268 264 260 252 239 232 231 230 229 229
254 265 265 261 266 272 271 267 273 281 275 267 258 245 240 244 250 253 252 249 244 244 250 255 261 282 310 274 253 256 259 257 254 243 218 191 185 189 183 170 159 144 128 113 91 75 53 29 22 15 2 353 348 346 347 344 340 341 341 338 336 331 326 321 313 306 303 299 296 294 291 289 286 282 278 272 269 264 257 251 246 240 239 236 230 227
254 260 266 264 265 269 271 277 285 269 259 264 17 202 244 255 261 262 262 262 259 258 266 275 278 287 296 282 268 270 272 270 262 235 207 195 193 187 175 160 149 136 126 112 77 52 35 14 1 353 341 333 333 331 329 327 326 327 328 327 325 323 318 312 305 299 293 290 291 290 288 288 287 284 281 277 273 266 257 251 246 240 240 239 232 228
246 248 257 260 261 266 269 259 255 257 258 66 75 84 272 280 280 279 278 282 290 289 284 284 284 280 278 273 266 267 258 175 171 188 190 195 195 182 167 155 143 129 112 85 46 17 7 355 339 333 328 323 322 317 313 315 318 319 320 321 320 316 313 309 305 301 295 290 288 287 287 287 285 282 278 274 270 266 260 256 249 243 239 238 235 232
244 245 253 255 251 255 255 241 243 267 346 24 194 154 169 246 252 264 261 235 53 339 294 289 295 299 297 217 185 189 176 159 153 156 163 170 177 176 169 153 109 53 9 354 355 350 342 334 325 321 318 313 311 308 309 311 311 310 311 313 313 311 310 308 305 302 300 296 294 291 288 286 283 279 274 270 267 265 261 257 252 246 241 238 236 235
239 245 247 247 245 247 254 252 255 275 286 270 238 152 64 287 279 285 272 237 93 41 343 340 340 343 50 162 153 159 189 186 169 135 116 116 123 135 135 27 359 342 332 333 335 332 325 322 318 314 307 302 300 301 303 304 302 301 301 303 304 305 304 303 300 299 297 295 294 292 289 286 283 277 271 268 265 263 260 258 254 248 242 239 237 235
227 242 244 245 245 243 257 265 264 267 273 280 93 87 56 359 334 304 282 254 113 76 25 6 359 336 321 320 275 218 217 219 207 154 109 93 85 59 352 326 324 320 323 326 321 316 316 316 313 310 304 299 296 296 298 298 296 294 293 294 296 297 298 297 295 294 294 293 292 289 286 283 280 277 273 268 266 264 262 258 255 250 244 240 238 236
212 237 243 249 251 245 254 263 262 263 274 44 72 62 50 30 336 286 256 243 62 45 19 351 344 333 330 345 330 272 241 239 225 159 92 36 13 7 334 320 325 323 318 317 312 312 317 315 309 305 303 301 300 301 300 297 293 288 286 288 290 290 290 288 288 289 290 289 289 287 284 282 278 275 273 270 268 267 264 261 257 253 247 243 241 236
208 224 231 241 248 247 249 257 262 269 290 57 59 34 44 54 339 268 244 237 18 8 353 339 323 314 323 337 320 275 254 257 259 42 32 350 335 343 330 321 324 320 315 315 314 314 311 306 304 304 304 304 303 302 300 295 289 284 283 285 286 286 284 284 285 286 285 283 284 283 281 278 275 273 271 271 270 268 266 264 260 253 246 242 238 226
224 226 236 245 249 250 250 255 263 268 345 61 51 42 47 59 235 249 257 320 357 341 343 340 316 305 316 321 304 274 271 292 315 333 334 320 316 321 316 311 312 311 311 313 315 313 306 301 301 301 300 300 299 297 295 292 287 283 283 284 285 284 285 286 286 284 281 279 279 279 278 275 272 271 270 269 269 268 266 264 259 249 235 224 218 206
246 239 245 248 252 256 254 258 266 263 69 50 27 50 53 275 247 258 317 329 323 324 334 330 314 307 306 301 296 289 291 299 306 307 308 308 309 310 309 309 309 309 310 310 310 308 303 300 300 298 296 297 295 292 291 288 284 283 284 283 283 284 286 287 285 282 279 277 276 277 277 274 270 268 268 267 266 265 263 259 250 233 212 200 198 192
263 261 257 248 253 262 253 253 265 256 80 42 9 17 61 301 302 327 319 303 312 321 319 313 311 307 297 293 294 296 296 296 296 297 297 297 298 301 304 307 308 308 307 305 302 301 298 296 295 294 293 292 291 289 287 285 283 282 281 281 283 286 288 287 284 280 278 275 275 276 276 273 269 266 264 263 261 261 258 249 234 215 200 192 185 172
256 262 270 263 259 261 249 252 284 289 79 20 344 313 313 318 315 314 303 297 308 316 308 303 304 299 295 294 293 293 294 293 291 291 291 290 292 296 297 298 299 299 298 296 295 294 292 288 287 287 286 285 284 284 283 281 279 278 278 280 284 285 285 284 282 280 278 275 275 274 273 271 268 264 262 260 258 255 248 232 213 195 182 177 168 153
268 324 305 283 274 279 272 280 307 305 292 310 317 303 301 302 302 303 298 295 299 302 298 294 290 288 286 284 284 287 287 287 288 289 290 290 290 291 292 293 294 294 293 291 290 289 287 284 283 284 282 280 281 282 280 277 275 274 276 281 283 282 282 282 282 280 277 275 272 271 270 268 266 263 262 260 252 240 223 202 184 168 156 154 150 140
291 320 304 282 279 285 278 272 281 288 291 300 301 295 293 293 293 296 295 291 293 294 294 293 291 290 288 285 284 282 277 278 281 282 282 284 285 287 289 290 290 290 290 290 289 289 287 285 284 284 281 281 281 281 279 275 272 273 279 283 284 283 282 282 280 277 274 271 269 268 266 264 263 261 258 250 233 215 195 174 164 155 146 141 138 133
290 327 296 278 278 283 279 271 282 290 295 299 296 292 291 287 285 289 292 294 297 296 293 294 294 291 288 285 283 281 279 279 279 278 279 280 282 283 285 285 286 288 289 290 291 291 288 286 285 284 283 284 284 284 282 278 276 279 283 286 285 284 282 280 277 274 269 266 265 265 263 260 256 247 231 207 186 177 164 153 149 145 140 138 135 132
6 17 303 282 278 278 280 284 289 290 290 292 291 290 289 289 292 292 290 290 294 293 290 289 289 288 287 284 282 282 282 281 279 279 279 279 280 282 282 283 285 287 288 289 290 289 287 286 285 285 286 287 288 288 285 282 283 287 289 288 286 285 283 280 276 271 268 265 264 262 256 244 214 180 161 152 150 149 144 139 137 135 135 137 135 132
328 310 297 298 292 279 277 285 294 296 294 291 291 292 293 296 298 298 295 291 289 287 286 285 283 282 282 283 283 281 280 280 279 279 279 278 279 280 281 284 287 290 291 291 290 289 287 285 284 286 287 288 290 290 286 287 290 292 291 290 289 289 285 281 276 272 266 260 251 229 188 160 151 146 137 131 130 131 131 132 132 131 133 136 135 132
304 294 301 307 292 283 291 304 308 305 296 291 295 298 299 300 299 299 298 294 288 286 286 285 283 280 277 276 276 275 275 277 278 278 279 279 279 280 283 286 289 289 290 290 289 288 286 284 284 286 286 287 289 288 288 292 295 293 294 297 298 296 289 280 270 259 236 195 158 144 137 132 131 131 127 123 122 122 123 127 131 132 134 136 134 131
317 308 312 306 292 291 298 302 302 297 290 291 296 298 299 302 302 299 296 292 290 290 290 289 287 284 279 274 271 270 272 276 278 279 279 280 280 282 284 285 287 287 287 288 288 286 284 284 284 284 285 286 286 287 289 294 296 298 306 312 314 308 289 226 141 121 117 119 123 128 128 124 123 126 127 126 126 125 122 121 123 127 129 128 125 122